SAZ23 LSZH-LSZH

Flight info

Callsign SAZ23
Flight time 0h 4m
Altitude 1500
Route TRA
Aircraft H145/H-SDE1E2E3GHIJ1J2J3J5M1P2RWXYZ/LB1D1

Departure

Time 2026-05-07 22:49
Airport Zürich Airport (LSZH)

Arrival

Time 2026-05-07 22:53
Airport Zürich Airport (LSZH)
Time Latitude Longitude Altitude Speed Heading
2026-05-07 22:10 47.45814 8.57186 1424 ft 0 kts 337°
2026-05-07 22:45 47.45818 8.57181 1428 ft 4 kts
2026-05-07 22:45 47.45697 8.57249 1502 ft 51 kts 160°
2026-05-07 22:45 47.45440 8.57583 1534 ft 46 kts 104°
2026-05-07 22:46 47.45611 8.57495 1509 ft 30 kts 313°
2026-05-07 22:46 47.45719 8.57379 1606 ft 14 kts 320°
2026-05-07 22:46 47.45693 8.57207 1775 ft 17 kts 279°
2026-05-07 22:46 47.45706 8.57030 1617 ft 18 kts 286°
2026-05-07 22:47 47.45768 8.56914 1423 ft 9 kts 335°
2026-05-07 22:47 47.45773 8.56911 1430 ft 1 kts 231°
2026-05-07 22:47 47.45794 8.56798 1608 ft 35 kts 298°
2026-05-07 22:47 47.45940 8.56260 1592 ft 67 kts 292°
2026-05-07 22:48 47.45990 8.55605 1743 ft 62 kts 275°
2026-05-07 22:48 47.46066 8.55001 1908 ft 58 kts 286°
2026-05-07 22:49 47.46095 8.54864 1965 ft 57 kts 291°
2026-05-07 22:49 47.46256 8.54352 2162 ft 55 kts 301°
2026-05-07 22:49 47.46423 8.53829 2348 ft 63 kts 283°
2026-05-07 22:49 47.46470 8.53155 2589 ft 71 kts 291°
2026-05-07 22:50 47.46700 8.52435 2941 ft 85 kts 311°
2026-05-07 22:50 47.46980 8.51635 3301 ft 96 kts 279°
2026-05-07 22:50 47.47065 8.50564 3530 ft 114 kts 282°
2026-05-07 22:50 47.47273 8.49344 3655 ft 129 kts 288°
2026-05-07 22:51 47.47594 8.48046 3745 ft 138 kts 293°
2026-05-07 22:51 47.48011 8.46735 3816 ft 143 kts 298°
2026-05-07 22:51 47.48165 8.46315 3872 ft 141 kts 300°
2026-05-07 22:51 47.48539 8.45393 3965 ft 142 kts 303°
2026-05-07 22:52 47.49075 8.44221 3991 ft 131 kts 295°
2026-05-07 22:52 47.49075 8.43020 3886 ft 117 kts 243°
2026-05-07 22:52 47.48796 8.41744 3352 ft 136 kts 246°
2026-05-07 22:52 47.48517 8.40590 3408 ft 108 kts 258°
2026-05-07 22:53 47.48603 8.39541 3216 ft 93 kts 276°
2026-05-07 22:53 47.48685 8.38711 3173 ft 71 kts 274°
2026-05-07 22:53 47.48748 8.38068 2967 ft 56 kts 278°
2026-05-07 22:53 47.48678 8.37594 2788 ft 39 kts 239°
2026-05-07 22:54 47.48691 8.37253 2585 ft 40 kts 282°
2026-05-07 22:54 47.48809 8.36919 2249 ft 56 kts 350°
2026-05-07 22:54 47.49142 8.36850 2024 ft 37 kts 338°
2026-05-07 22:54 47.49304 8.36772 1887 ft 13 kts 332°
2026-05-07 22:55 47.49321 8.36744 1873 ft 0 kts 337°
2026-05-07 22:55 47.49347 8.36750 1948 ft 7 kts 97°
2026-05-07 22:55 47.49239 8.36837 1912 ft 35 kts 269°
2026-05-07 22:55 47.49093 8.36821 2057 ft 25 kts 242°
2026-05-07 22:56 47.48861 8.36846 2300 ft 43 kts 184°
2026-05-07 22:56 47.48735 8.36535 2425 ft 32 kts 256°
2026-05-07 22:56 47.48743 8.36275 2349 ft 8 kts 291°
2026-05-07 22:56 47.48735 8.36255 2224 ft 0 kts
2026-05-07 22:59 47.48739 8.36254 2290 ft 3 kts 101°
2026-05-07 22:59 47.48741 8.36259 2778 ft 9 kts 64°
2026-05-07 22:59 47.48467 8.36252 2745 ft 77 kts 206°
2026-05-07 23:00 47.47980 8.36102 2897 ft 64 kts 150°
2026-05-07 23:00 47.47644 8.36524 2909 ft 76 kts 158°
2026-05-07 23:00 47.47341 8.36498 2459 ft 19 kts 162°
2026-05-07 23:00 47.47311 8.36656 1972 ft 35 kts 75°
2026-05-07 23:01 47.47205 8.36841 1893 ft 30 kts 286°
2026-05-07 23:01 47.47155 8.36605 1696 ft 20 kts 272°
2026-05-07 23:01 47.47138 8.36538 1640 ft 2 kts 39°
2026-05-07 23:01 47.47157 8.36537 1633 ft 0 kts 110°